Home > Weather > Ulaanbaatar > Past weeks

Flag for Mongolia Past Weather in Ulaanbaatar, Mongolia — Yesterday and Last 2 Weeks

Now
57 °F

Passing clouds.


Feels Like: 57 °F
Forecast: 48 / 81 °F
Wind: 1 mph from North

Location: Ulan-Bator

Current Time: Jul 28, 2016 at 4:18:00 AM

Latest Report: Jul 28, 2016 at 4:00 AM


Visibility: N/A

Pressure: 29.77 "Hg (25.51 "Hg at 1298m altitude)

Humidity: 77%

Dew Point: 50 °F

Location of UlaanbaatarLocation

Past Weather in Ulaanbaatar — Graph

°F

Ulaanbaatar Temperature Yesterday

Maximum temperature yesterday: 81 °F (at 3:00 PM)
Minimum temperature yesterday: 48 °F (at 7:00 AM)
Average temperature yesterday: 67 °F

High & Low Weather Summary for the Past Weeks

 TemperatureHumidityPressure
High86 °F (Jul 20, 5:00 PM)94% (Jul 13, 4:30 AM)30.01 "Hg (Jul 13, 4:30 AM)
Low43 °F (Jul 24, 7:00 AM)15% (Jul 27, 3:30 PM)29.56 "Hg (Jul 17, 4:00 PM)
Average66 °F59%29.80 "Hg
* Reported Jul 13 3:00 AM — Jul 28 3:30 AM, Ulaanbaatar, Weather by CustomWeather, © 2016

Note: Actual official high and low records may vary slightly from our data, if they occured in-between our weather recording intervals... More about our weather records

Advertising

Ulaanbaatar Weather History for the Previous 24 Hours

Scroll right to see more
 ConditionsComfort  
Time TempWeatherWind HumidityBarometerVisibility
3:30 AM
Thu, Jul 28
55 °FClear.3 mph82%29.77 "Hg10 mi
3:00 AM57 °FClear.3 mph72%29.77 "Hg10 mi
2:30 AM57 °FClear.1 mph72%29.77 "Hg10 mi
2:00 AM59 °FClear.1 mph72%29.80 "Hg10 mi
1:30 AM57 °FClear.6 mph77%29.80 "Hg10 mi
1:00 AM59 °FClear.3 mph72%29.80 "Hg10 mi
12:30 AM61 °FClear.No wind72%29.80 "Hg10 mi
12:00 AM59 °FClear.No wind77%29.80 "Hg10 mi
11:30 PM
Wed, Jul 27
68 °FScattered clouds.No wind56%29.80 "Hg5 mi
11:00 PM66 °FScattered clouds.6 mph56%29.80 "Hg5 mi
10:30 PM68 °FScattered clouds.3 mph56%29.80 "Hg5 mi
10:00 PM70 °FScattered clouds.3 mph50%29.77 "Hg5 mi
9:30 PM72 °FScattered clouds.8 mph47%29.77 "Hg5 mi
9:00 PM75 °FScattered clouds.8 mph39%29.77 "Hg5 mi
8:30 PM75 °FScattered clouds.8 mph39%29.77 "Hg5 mi
8:00 PM77 °FClear.10 mph32%29.77 "Hg5 mi
7:30 PM77 °FSunny.13 mph32%29.74 "Hg10 mi
7:00 PM79 °FSunny.10 mph30%29.74 "Hg10 mi
6:30 PM79 °FSunny.13 mph28%29.74 "Hg10 mi
6:00 PM79 °FPassing clouds.13 mph24%29.74 "HgN/A
5:30 PM81 °FPassing clouds.13 mph21%29.74 "HgN/A
5:00 PM79 °FPassing clouds.15 mph23%29.74 "HgN/A
4:30 PM81 °FSunny.17 mph18%29.74 "Hg10 mi
4:00 PM81 °FPassing clouds.15 mph18%29.74 "HgN/A
3:30 PM81 °FPassing clouds.13 mph15%29.77 "HgN/A
3:00 PM81 °FSunny.13 mph16%29.77 "Hg10 mi
2:30 PM79 °FPassing clouds.10 mph21%29.77 "HgN/A
2:00 PM79 °FPassing clouds.10 mph23%29.77 "HgN/A
1:30 PM79 °FPassing clouds.10 mph18%29.80 "HgN/A
1:00 PM77 °FPartly sunny.3 mph28%29.80 "HgN/A
12:30 PM72 °FPartly sunny.1 mph36%29.80 "HgN/A
12:00 PM72 °FPartly sunny.3 mph33%29.80 "HgN/A
11:30 AM70 °FSunny.1 mph33%29.80 "Hg10 mi
11:00 AM68 °FSunny.1 mph35%29.80 "Hg10 mi
10:30 AM64 °FSunny.3 mph43%29.80 "Hg10 mi
10:00 AM63 °FSunny.No wind45%29.83 "Hg10 mi
9:30 AM61 °FSunny.1 mph48%29.83 "Hg10 mi
9:00 AM57 °FPassing clouds.6 mph48%29.80 "HgN/A
8:30 AM55 °FSunny.6 mph55%29.80 "Hg10 mi
8:00 AM55 °FClear.3 mph47%29.80 "Hg10 mi
7:30 AM54 °FClear.3 mph54%29.80 "Hg10 mi
7:00 AM48 °FClear.1 mph76%29.80 "Hg10 mi
6:30 AM50 °FClear.1 mph71%29.80 "Hg10 mi
6:00 AM54 °FClear.1 mph63%29.80 "Hg10 mi
5:30 AM52 °FClear.No wind77%29.80 "Hg10 mi
5:00 AM50 °FClear.1 mph76%29.80 "Hg10 mi
4:30 AM52 °FPassing clouds.1 mph72%29.80 "HgN/A
4:00 AM55 °FPassing clouds.1 mph63%29.80 "HgN/A
Weather by CustomWeather, © 2016

See weather overviewHow to use our weather pages